IRIS

Last updated on Thu Nov 21 2024 00:03:26 GMT+0000 (Coordinated Universal Time)

1 39197U 13033A 24325.34315746 .00002960 00000+0 36639-3 0 9994 2 39197 97.9562 155.2691 0026395 35.0670 325.2275 14.83261466615227
UTC large
Height (km)
Speed (km/s)
/
Latitude / Longitude
Inclination (degrees)
Orbital Period (minutes)
Azimuth
Elevation
Range (km)
Doppler Factor

Next 0 passes for location: London (51.5072 / 0.1276)

Sorry there are no passes over London.